Orbital Elements at Epoch 2459200.5 (2020-Dec-17.0) TDB
Reference: JPL 16 (heliocentric ecliptic J2000)
Element | Value | Uncertainty (1-sigma) | Units |
e | .05230462866019239 | 4.1939e-08 | |
a | 3.130227648772988 | 2.989e-08 | au |
q | 2.96650225398205 | 1.4136e-07 | au |
i | 11.66434586794928 | 4.6214e-06 | deg |
node | 117.9121009917268 | 2.1484e-05 | deg |
peri | 153.7738584071822 | 5.8211e-05 | deg |
M | 19.14437755112479 | 5.038e-05 | deg |
tp | 2459092.927549643918 (2020-Aug-31.42754964) | 0.00028361 | TDB |
period | 2022.843627314194 5.54 | 2.8973e-05 7.932e-08 | d yr |
n | .1779672907677919 | 2.549e-09 | deg/d |
Q | 3.293953043563926 | 3.1453e-08 | au |
|
| | Orbit Determination Parameters
Additional Information
|